Weather History for Jackson, TN

Change the Weather History Date:

Wednesday, October 16, 2013

  Actual Average Record
Temperature  
Mean Temperature 62 °F 60 °F  
Max Temperature 66 °F 73 °F 89 °F (1953)
Min Temperature 57 °F 48 °F 30 °F (1952)
Degree Days  
Heating Degree Days 3 6  
Month to date heating degree days 23 69  
Since 1 July heating degree days 31 95  
Cooling Degree Days 0 1  
Month to date cooling degree days 68 34  
Year to date cooling degree days 1589 1677  
Growing Degree Days 12 (Base 50)    
Moisture  
Dew Point 58 °F    
Average Humidity 92    
Maximum Humidity 100    
Minimum Humidity 84    
Precipitation  
Precipitation T in 0.12 in 2.00 in (1975)
Month to date precipitation 1.60 1.93  
Year to date precipitation 49.55 41.18  
Snow  
Snow 0.00 in 0.00 in 0.00 in (2002)
Month to date snowfall 0.0 0.0  
Since 1 July snowfall 0.0 0.0  
Since 1 September snowfall 0.0 0.0  
Snow Depth 0.00 in    
Sea Level Pressure  
Sea Level Pressure 29.98 in    
Wind  
Wind Speed 4 mph (North)    
Max Wind Speed 17 mph    
Max Gust Speed 22 mph    
Visibility 8 miles    
Events Rain    
T = Trace of Precipitation, MM = Missing Value Source: NWS Daily Summary

Daily Weather History Graph

Daily Weather History Graph

Search for Another Location

Airport:

Trip Planner

Search our weather history database for the weather conditions in past years. The results will help you decide how hot, cold, wet, or windy it might be!

Date:

Astronomy

Oct. 16, 2013 Rise Set
Actual Time 7:03 AM CDT 6:18 PM CDT
Civil Twilight 6:37 AM CDT 6:44 PM CDT
Nautical Twilight 6:07 AM CDT 7:13 PM CDT
Astronomical Twilight 5:38 AM CDT 7:43 PM CDT
Moon 4:54 PM CDT (10/16) 4:35 AM CDT (10/16)
Length of Visible Light 12h 06m
Length of Day
11h 15m
Waxing Gibbous, 94% of the Moon is Illuminated
Oct 16
Waxing Gibbous
Oct 18
Full
Oct 26
Last Quarter
Nov 3
New
Nov 9
First Quarter

Hourly Weather History & Observations

Time (CDT) Temp. Dew Point Humidity Pressure Visibility Wind Dir Wind Speed Gust Speed Precip Events Conditions
12:53 AM 66.0 °F 64.0 °F 93% 29.96 in 10.0 mi South 3.5 mph - N/A   Overcast
1:53 AM 64.9 °F 64.0 °F 97% 29.96 in 8.0 mi Calm Calm - 0.00 in Rain Light Rain
2:39 AM 64.4 °F 62.6 °F 94% 29.98 in 2.5 mi Calm Calm - 0.00 in   Mostly Cloudy
2:53 AM 64.9 °F 64.0 °F 97% 29.96 in 4.0 mi Calm Calm - 0.00 in   Mostly Cloudy
3:10 AM 64.4 °F 64.4 °F 100% 29.98 in 6.0 mi Calm Calm - N/A   Overcast
3:53 AM 64.9 °F 64.0 °F 97% 29.96 in 5.0 mi Calm Calm - N/A   Overcast
4:53 AM 66.0 °F 64.0 °F 93% 29.97 in 6.0 mi Calm Calm - 0.00 in Rain Light Rain
5:16 AM 66.2 °F 64.4 °F 94% 29.97 in 7.0 mi Calm Calm - 0.00 in Rain Light Rain
5:42 AM 66.2 °F 64.4 °F 94% 29.96 in 7.0 mi Calm Calm - 0.00 in   Overcast
5:53 AM 66.0 °F 64.0 °F 93% 29.96 in 4.0 mi Calm Calm - 0.00 in   Overcast
6:31 AM 66.2 °F 64.4 °F 94% 29.97 in 6.0 mi South 3.5 mph - 0.00 in Rain Light Rain
6:53 AM 66.0 °F 64.0 °F 93% 29.96 in 7.0 mi Calm Calm - 0.00 in Rain Light Rain
6:59 AM 66.2 °F 64.4 °F 94% 29.97 in 4.0 mi Calm Calm - 0.00 in Rain Light Rain
7:53 AM 62.1 °F 59.0 °F 90% 29.99 in 4.0 mi North 13.8 mph - 0.00 in Rain Light Rain
8:35 AM 57.2 °F 55.4 °F 94% 30.01 in 10.0 mi North 12.7 mph - 0.00 in Rain Light Rain
8:53 AM 57.0 °F 54.0 °F 89% 30.01 in 10.0 mi North 11.5 mph - 0.00 in   Overcast
9:32 AM 57.2 °F 53.6 °F 88% 30.02 in 7.0 mi North 9.2 mph - 0.00 in Rain Light Rain
9:53 AM 57.0 °F 54.0 °F 89% 30.02 in 9.0 mi North 10.4 mph - 0.00 in Rain Light Rain
10:10 AM 57.2 °F 53.6 °F 88% 30.03 in 10.0 mi North 11.5 mph - 0.00 in Rain Light Rain
10:53 AM 57.0 °F 55.0 °F 93% 30.02 in 10.0 mi North 6.9 mph - 0.00 in Rain Light Rain
11:01 AM 57.2 °F 55.4 °F 94% 30.03 in 10.0 mi NNW 10.4 mph - 0.00 in Rain Light Rain
11:31 AM 57.2 °F 55.4 °F 94% 30.01 in 5.0 mi NNE 6.9 mph - 0.00 in Rain Rain
11:50 AM 57.2 °F 55.4 °F 94% 30.01 in 10.0 mi North 8.1 mph - 0.00 in Rain Light Rain
11:53 AM 57.9 °F 55.0 °F 90% 30.00 in 10.0 mi North 6.9 mph - 0.00 in Rain Light Rain
12:53 PM 59.0 °F 55.9 °F 90% 29.99 in 10.0 mi Calm Calm - 0.00 in   Overcast
1:53 PM 59.0 °F 57.0 °F 93% 29.97 in 10.0 mi NNW 6.9 mph - N/A   Overcast
2:53 PM 60.1 °F 57.0 °F 90% 29.96 in 10.0 mi North 9.2 mph - N/A   Overcast
3:53 PM 60.1 °F 55.9 °F 86% 29.97 in 10.0 mi North 9.2 mph - N/A   Overcast
4:04 PM 60.8 °F 55.4 °F 82% 29.97 in 10.0 mi North 8.1 mph - N/A   Overcast
4:41 PM 60.8 °F 53.6 °F 77% 29.97 in 10.0 mi North 5.8 mph - N/A   Overcast
4:53 PM 61.0 °F 55.0 °F 81% 29.97 in 10.0 mi NNW 6.9 mph - N/A   Overcast
5:43 PM 60.8 °F 55.4 °F 82% 29.97 in 10.0 mi North 6.9 mph - N/A   Overcast
5:53 PM 60.1 °F 55.0 °F 83% 29.96 in 10.0 mi North 4.6 mph - N/A   Overcast
6:12 PM 60.8 °F 55.4 °F 82% 29.97 in 10.0 mi North 3.5 mph - N/A   Overcast
6:53 PM 60.1 °F 55.0 °F 83% 29.96 in 10.0 mi North 3.5 mph - N/A   Overcast
7:53 PM 57.9 °F 54.0 °F 87% 29.97 in 10.0 mi North 5.8 mph - N/A   Overcast
8:09 PM 57.2 °F 53.6 °F 88% 29.98 in 10.0 mi NNW 4.6 mph - N/A   Overcast
8:53 PM 57.9 °F 55.0 °F 90% 29.99 in 10.0 mi Calm Calm - N/A   Overcast
9:06 PM 57.2 °F 55.4 °F 94% 29.99 in 10.0 mi Calm Calm - N/A   Overcast
9:53 PM 57.9 °F 55.0 °F 90% 29.99 in 10.0 mi Calm Calm - N/A   Overcast
10:53 PM 57.9 °F 55.0 °F 90% 29.98 in 10.0 mi Calm Calm - N/A   Overcast
11:53 PM 57.9 °F 55.0 °F 90% 29.97 in 10.0 mi Calm Calm - N/A   Overcast